Regional Weather Roundup
Issued by NWS Nashville, TN

Home | Current Version | Previous Version | Text Only | Print | Product List | Glossary On
Versions: 1 2 3 4 5 6 7 8 9 10 11 12 13 14 15 16 17 18 19 20 21 22 23 24 25 26 27 28 29 30 31 32 33 34 35 36 37 38 39 40 41 42 43 44 45 46 47 48 49 50
000
ASUS44 KOHX 041615
RWROHX
MIDDLE TENNESSEE HOURLY WEATHER ROUNDUP
NATIONAL WEATHER SERVICE NASHVILLE TN
1100 AM CDT MON MAY 04 2015

NOTE: "FAIR" INDICATES FEW OR NO CLOUDS BELOW 12,000 FEET WITH
NO SIGNIFICANT WEATHER AND/OR OBSTRUCTIONS TO VISIBILITY.

* THESE REPORTS ARE NOT UNDER NWS QUALITY CONTROL AND MAY NOT
  REPORT WEATHER SUCH AS PRECIPITATION AND FOG.


TNZ005>011-023>034-057-059-062>066-078-080-041700
...NORTHERN MIDDLE TENNESSEE...

CITY           SKY/WX    TMP DP  RH WIND       PRES   REMARKS
CLARKSVILLE    MOSUNNY   76  58  53 S7        30.24R
CROSSVILLE     MOSUNNY   74  45  35 VRB7      30.33S
LIVINGSTON     SUNNY     78  51  38 SW9       30.30
NASHVILLE      PTSUNNY   79  52  38 SW6       30.27S
PORTLAND       MOSUNNY   73  57  56 S7        30.26R
ROCKWOOD       SUNNY     73  53  49 S7        30.32R
SMYRNA         MOSUNNY   76  54  46 SW7       30.29R
SPARTA         SUNNY     79  55  44 SW12      30.30R
$$
TNZ056-058-060-061-075>077-079-093>097-041700
...SOUTHERN MIDDLE TENNESSEE...

CITY           SKY/WX    TMP DP  RH WIND       PRES   REMARKS
COLUMBIA       PTSUNNY   77  57  50 W7        30.27R
LEWISBURG      PTSUNNY   77  54  44 SW5       30.28R
MCMINNVILLE    SUNNY     77  54  44 SW8       30.31S
SHELBYVILLE    CLOUDY    77  57  50 VRB5      30.31R
TULLAHOMA      SUNNY     75  52  43 SW8       30.31S
WINCHESTER     SUNNY     77  54  44 SW7       30.31S
$$


...KEY TO REMARKS...
VSB - VISIBILITY IN MILES
WCI - WIND CHILL INDEX
HX  - HEAT INDEX




USA.gov is the U.S. government's official web portal to all federal, state and local government web resources and services.